Waarnemingen

Advertentie
Mijn weer
Tännäs, Zweden (2308): temperatuur & dauwpunt: 12.11.2018 17:00:00 - 18.11.2018 17:00:00 (CET)Tännäs, Zweden (2308): windsnelheid & windstoten: 12.11.2018 17:00:00 - 18.11.2018 17:00:00 (CET)Tännäs, Zweden (2308): windrichting: 12.11.2018 17:00:00 - 18.11.2018 17:00:00 (CET)Tännäs, Zweden (2308): luchtdruk: 12.11.2018 17:00:00 - 18.11.2018 17:00:00 (CET)Tännäs, Zweden (2308): zicht: 12.11.2018 17:00:00 - 18.11.2018 17:00:00 (CET)Tännäs, Zweden (2308): neerslag: 12.11.2018 17:00:00 - 18.11.2018 17:00:00 (CET)
Datum & Tijd tt [°C] td [°C] ff [km/u] ff [kn] fx [km/u] fx [kn] dd ppp [hPa] vv [km] rr [mm]
18.11.2018 17:00:00 -3,3 -5,6 0 0 4 2 N 1044,3 50 0,0
18.11.2018 16:00:00 -3,0 -5,5 0 0 4 2 N 1044,7 50 0,0
18.11.2018 15:00:00 -2,2 -4,9 0 0 4 2 N 1044,7 50 0,0
18.11.2018 14:00:00 -1,2 -4,7 0 0 5 3 N 1045,0 50 0,0
18.11.2018 13:00:00 -0,4 -4,5 2 1 5 3 Z 1045,2 50 0,0
18.11.2018 12:00:00 -0,6 -5,0 0 0 5 3 N 1045,9 50 0,0
18.11.2018 11:00:00 -2,0 -4,7 0 0 5 3 N 1046,4 50 0,0
18.11.2018 10:00:00 -2,4 -5,4 0 0 6 3 N 1046,4 50 0,0
18.11.2018 09:00:00 -3,1 -5,3 0 0 6 3 N 1046,3 50 0,0
18.11.2018 08:00:00 -3,2 -5,7 0 0 6 3 N 1046,1 50 0,0
18.11.2018 07:00:00 -2,5 -4,7 0 0 6 3 N 1045,8 50 0,0
18.11.2018 06:00:00 -2,5 -5,0 2 1 5 3 ZW 1045,6 50 0,0
18.11.2018 05:00:00 -2,1 -4,6 0 0 5 3 N 1045,4 47 0,0
18.11.2018 04:00:00 -2,1 -4,1 3 2 6 3 NNO 1044,9 50 0,0
18.11.2018 03:00:00 -1,3 -3,3 0 0 6 3 N 1044,8 49 0,0
18.11.2018 02:00:00 -1,2 -3,2 0 0 4 2 N 1045,1 50 0,0
18.11.2018 01:00:00 -0,9 -2,8 2 1 5 3 N 1044,5 50 0,0
18.11.2018 00:00:00 -0,7 -2,7 3 1 13 7 NW 1044,1 50 0,0
17.11.2018 23:00:00 -0,4 -2,6 2 1 14 8 NO 1043,6 50 0,0
17.11.2018 22:00:00 0,5 -1,4 4 2 14 8 NW 1043,0 50 0,0
17.11.2018 21:00:00 0,7 -1,5 3 1 11 6 ONO 1042,6 50 0,0
17.11.2018 20:00:00 1,2 -1,0 3 1 11 6 NNW 1042,6 50 0,0
17.11.2018 19:00:00 1,5 -1,4 3 2 10 6 ZW 1042,1 50 0,0
17.11.2018 18:00:00 0,6 -1,6 3 2 11 6 O 1042,3 50 0,0
17.11.2018 17:00:00 1,7 -1,0 3 1 11 6 WNW 1041,6 50 0,0
17.11.2018 16:00:00 2,8 -0,5 4 2 10 6 WNW 1041,0 50 0,0
17.11.2018 15:00:00 3,6 0,3 3 2 12 6 NNW 1040,5 50 0,0
17.11.2018 14:00:00 4,7 0,1 3 2 14 8 WNW 1040,0 50 0,0
17.11.2018 13:00:00 5,8 0,8 4 2 12 7 W 1039,9 50 0,0
17.11.2018 12:00:00 4,7 0,8 2 1 15 8 W 1040,3 50 0,0
17.11.2018 11:00:00 - - - - 15 8 - - - -
17.11.2018 10:00:00 4,6 1,3 6 4 14 8 NW 1039,8 50 0,0
17.11.2018 09:00:00 3,4 1,0 2 1 14 8 N 1039,6 50 0,0
17.11.2018 08:00:00 2,5 0,2 4 2 19 11 O 1039,4 43 0,0
17.11.2018 07:00:00 3,9 1,0 7 4 19 11 WNW 1038,0 50 0,0
17.11.2018 06:00:00 3,0 0,9 4 2 21 12 NNW 1037,4 50 0,0
17.11.2018 05:00:00 3,9 1,3 4 2 21 12 NW 1037,3 50 0,0
17.11.2018 04:00:00 1,8 -0,5 0 0 12 7 N 1038,2 25 0,0
17.11.2018 03:00:00 - - - - 12 7 - - - -
17.11.2018 02:00:00 1,4 -1,0 2 1 5 3 O 1037,7 32 0,0
17.11.2018 01:00:00 1,1 -1,1 3 1 10 5 NNO 1037,1 34 0,0
17.11.2018 00:00:00 1,7 -1,2 0 0 14 7 N 1036,5 40 0,0
16.11.2018 23:00:00 1,4 -1,0 0 0 18 10 N 1035,8 33 0,0
16.11.2018 22:00:00 2,4 0,1 7 4 18 10 NW 1035,2 50 0,0
16.11.2018 21:00:00 2,5 0,1 8 4 18 10 NW 1034,4 44 0,0
16.11.2018 20:00:00 1,3 -0,6 3 2 7 4 N 1034,1 42 0,0
16.11.2018 19:00:00 1,4 -1,0 2 1 7 4 NW 1033,4 50 0,0
16.11.2018 18:00:00 1,5 -0,7 2 1 10 6 NNW 1032,7 50 0,0
16.11.2018 17:00:00 2,2 -0,9 2 1 23 12 NNW 1031,8 50 0,0
16.11.2018 16:00:00 2,8 -1,0 2 1 23 12 ZW 1031,3 50 0,0
16.11.2018 15:00:00 3,4 -0,1 8 4 23 12 Z 1030,4 50 0,0
16.11.2018 14:00:00 4,4 0,2 9 5 23 12 ZZW 1029,4 50 0,0
16.11.2018 13:00:00 4,0 0,3 8 5 23 12 ZW 1029,2 50 0,0
16.11.2018 12:00:00 5,0 0,2 9 5 23 12 ZW 1028,5 50 0,0
16.11.2018 11:00:00 3,6 -0,4 8 4 21 11 WZW 1029,2 50 0,0
16.11.2018 10:00:00 2,5 -1,3 4 2 14 8 W 1029,1 50 0,0
16.11.2018 09:00:00 1,9 -1,7 4 2 14 8 Z 1027,9 50 0,0
16.11.2018 08:00:00 1,6 -2,0 4 2 14 8 Z 1027,5 50 0,0
16.11.2018 07:00:00 2,2 -1,4 4 2 14 8 OZO 1026,5 50 0,0
16.11.2018 06:00:00 2,0 -1,3 3 2 18 10 ZZO 1026,1 50 0,0
16.11.2018 05:00:00 2,3 -1,3 5 3 24 13 Z 1025,4 50 0,0
16.11.2018 04:00:00 2,9 -0,6 10 5 24 13 ZZW 1024,9 50 0,0
16.11.2018 03:00:00 3,1 -0,7 2 1 23 13 ZW 1025,1 50 0,0
16.11.2018 02:00:00 3,5 0,4 8 5 23 13 ZZW 1024,9 50 0,0
16.11.2018 01:00:00 4,5 1,0 6 3 22 12 ZW 1024,2 50 0,0
16.11.2018 00:00:00 5,3 3,0 8 4 21 11 ZZW 1023,9 37 0,1
15.11.2018 23:00:00 5,2 3,2 7 4 21 11 ZW 1024,2 50 0,0
15.11.2018 22:00:00 4,0 1,5 4 2 13 7 Z 1024,7 50 0,0
15.11.2018 21:00:00 3,4 1,0 3 2 13 7 ZZW 1025,3 50 0,0
15.11.2018 20:00:00 2,6 0,3 3 2 10 6 ZW 1025,3 50 0,0
15.11.2018 19:00:00 2,9 0,8 4 2 10 6 OZO 1024,6 50 0,0
15.11.2018 18:00:00 2,1 0,6 2 1 11 6 ZO 1024,4 50 0,0
15.11.2018 17:00:00 2,2 0,3 2 1 11 6 ONO 1024,0 50 0,0
15.11.2018 16:00:00 2,5 0,9 3 2 14 8 NNW 1023,7 50 0,0
15.11.2018 15:00:00 3,0 0,6 2 1 17 9 O 1022,8 50 0,0
15.11.2018 14:00:00 4,5 1,5 5 3 17 9 ZW 1022,2 50 0,0
15.11.2018 13:00:00 5,4 1,9 5 3 14 7 ZW 1021,3 50 0,0
15.11.2018 12:00:00 4,6 0,9 3 2 14 7 W 1021,4 50 0,0
15.11.2018 11:00:00 3,7 0,6 4 2 10 5 ZW 1021,4 50 0,0
15.11.2018 10:00:00 2,7 0,3 3 2 13 7 W 1020,6 50 0,0
15.11.2018 09:00:00 2,2 -0,6 0 0 16 8 N 1020,3 50 0,0
15.11.2018 08:00:00 2,7 -0,2 4 2 16 8 Z 1019,3 50 0,0
15.11.2018 07:00:00 3,1 0,2 4 2 19 10 WZW 1018,6 50 0,0
15.11.2018 06:00:00 2,9 0,1 9 5 21 11 WZW 1018,0 50 0,0
15.11.2018 05:00:00 2,6 -0,2 5 3 21 11 W 1017,4 50 0,0
15.11.2018 04:00:00 2,2 -0,6 6 3 16 9 ZZW 1017,0 50 0,0
15.11.2018 03:00:00 2,2 -0,6 5 3 17 9 ZW 1017,1 50 0,0
15.11.2018 02:00:00 1,4 -1,3 6 4 17 9 ZW 1017,5 50 0,0
15.11.2018 01:00:00 0,4 -2,5 6 3 14 7 Z 1017,9 50 0,0
15.11.2018 00:00:00 -0,7 -3,6 5 3 15 8 Z 1018,5 50 0,0
14.11.2018 23:00:00 -1,5 -4,0 6 3 15 8 ZW 1018,4 50 0,0
14.11.2018 22:00:00 -1,6 -4,3 2 1 16 8 Z 1018,7 50 0,0
14.11.2018 21:00:00 -1,5 -4,5 3 1 16 8 Z 1018,7 50 0,0
14.11.2018 20:00:00 -0,9 -4,1 2 1 16 8 Z 1018,2 50 0,0
14.11.2018 19:00:00 -1,2 -4,2 5 3 17 9 ZZW 1018,0 50 0,0
14.11.2018 18:00:00 -0,6 -4,1 5 3 17 9 Z 1018,1 50 0,0
14.11.2018 17:00:00 -0,2 -3,6 6 3 16 9 Z 1018,1 50 0,0
14.11.2018 16:00:00 -0,1 -3,5 3 2 13 7 Z 1018,3 50 0,0
14.11.2018 15:00:00 0,4 -3,5 5 3 13 7 Z 1018,3 50 0,0
14.11.2018 14:00:00 1,0 -3,1 5 3 13 7 Z 1018,2 50 0,0
14.11.2018 13:00:00 1,9 -3,0 3 2 9 5 Z 1018,1 50 0,0
14.11.2018 12:00:00 0,9 -3,2 3 2 9 5 Z 1018,5 50 0,0
14.11.2018 11:00:00 -0,5 -4,0 0 0 5 3 N 1018,9 50 0,0
14.11.2018 10:00:00 -1,7 -4,7 0 0 6 3 N 1019,1 50 0,0
14.11.2018 09:00:00 -2,6 -5,7 0 0 11 6 N 1018,4 50 0,0
14.11.2018 08:00:00 -2,3 -4,6 0 0 11 6 N 1018,0 50 0,0
14.11.2018 07:00:00 -2,2 -4,5 5 3 11 6 WNW 1017,7 50 0,0
14.11.2018 06:00:00 -1,8 -5,0 0 0 15 8 N 1016,9 50 0,0
14.11.2018 05:00:00 -0,8 -3,3 6 3 15 8 NNW 1016,2 50 0,0
14.11.2018 04:00:00 -0,8 -3,0 7 4 17 9 NNW 1015,9 50 0,0
14.11.2018 03:00:00 -0,4 -2,8 6 3 23 12 NW 1015,3 50 0,0
14.11.2018 02:00:00 0,0 -2,1 9 5 23 12 NW 1014,7 50 0,0
14.11.2018 01:00:00 0,1 -2,0 9 5 17 9 WNW 1014,0 50 0,0
14.11.2018 00:00:00 0,1 -2,4 3 2 13 7 WNW 1013,7 50 0,0
13.11.2018 23:00:00 0,2 -2,3 2 1 10 5 W 1013,2 50 0,0
13.11.2018 22:00:00 0,3 -2,6 0 0 11 6 N 1012,7 50 0,0
13.11.2018 21:00:00 1,2 -2,0 4 2 11 6 ZW 1012,2 50 0,0
13.11.2018 20:00:00 0,8 -2,3 0 0 9 5 N 1012,1 50 0,0
13.11.2018 19:00:00 0,8 -2,4 2 1 11 6 ZW 1011,9 50 0,0
13.11.2018 18:00:00 0,9 -2,0 3 2 11 6 ZW 1011,7 50 0,0
13.11.2018 17:00:00 0,5 -2,5 3 1 11 6 ZZW 1011,4 50 0,0
13.11.2018 16:00:00 0,9 -1,8 4 2 11 6 W 1010,8 50 0,0
13.11.2018 15:00:00 0,8 -2,4 3 2 8 4 WNW 1010,8 50 0,0
13.11.2018 14:00:00 0,8 -2,4 0 0 6 3 N 1010,6 50 0,0
13.11.2018 13:00:00 0,9 -2,7 2 1 8 4 Z 1010,5 50 0,0
13.11.2018 12:00:00 2,7 -1,7 3 2 8 4 Z 1010,1 50 0,0
13.11.2018 11:00:00 0,0 -2,9 3 1 7 4 W 1010,5 50 0,0
13.11.2018 10:00:00 -0,9 -3,4 2 1 8 5 ZO 1010,9 50 0,0
13.11.2018 09:00:00 -1,5 -3,7 4 2 8 5 WNW 1010,8 50 0,0
13.11.2018 08:00:00 -1,3 -3,3 3 2 7 4 O 1010,7 50 0,0
13.11.2018 07:00:00 -1,2 -3,4 4 2 7 4 O 1010,4 50 0,0
13.11.2018 06:00:00 -0,9 -3,1 3 2 6 3 O 1010,1 50 0,0
13.11.2018 05:00:00 -0,6 -3,1 2 1 6 3 OZO 1010,2 50 0,0
13.11.2018 04:00:00 -0,5 -2,4 2 1 6 3 N 1010,5 50 0,0
13.11.2018 03:00:00 -0,4 -3,3 2 1 6 3 ZZO 1010,6 50 0,0
13.11.2018 02:00:00 0,4 -1,8 2 1 6 3 OZO 1010,5 50 0,0
13.11.2018 01:00:00 0,3 -1,8 2 1 7 4 ZO 1010,6 50 0,0
13.11.2018 00:00:00 0,2 -1,9 3 1 8 4 O 1010,4 50 0,0
12.11.2018 23:00:00 1,5 -0,6 2 1 8 4 ZO 1010,3 50 0,0
12.11.2018 22:00:00 2,4 -0,7 3 1 14 8 Z 1009,8 50 0,0
12.11.2018 21:00:00 3,2 -0,1 0 0 20 11 N 1009,3 50 0,0
12.11.2018 20:00:00 3,9 0,8 5 3 20 11 WZW 1008,7 50 0,0
12.11.2018 19:00:00 3,9 0,8 4 2 18 10 ZW 1007,9 50 0,0
12.11.2018 18:00:00 3,0 0,4 6 3 17 9 ZZW 1007,9 50 0,0
12.11.2018 17:00:00 3,3 1,0 3 1 17 9 WZW 1007,8 50 0,0

tt = temperatuur
td = dauwpunt
ff = windsnelheid
fx = windstoten
dd = windrichting
ppp = luchtdruk
vv = zicht
rr = neerslag

Weerstations in de omgeving